Location: Dover
(48.8500°N, 53.9833°W)
Time: 06:12:32
(UTC+00:00)

COSMO-SKYMED 1 - Pass Details

Date: 14 November 2025
Orbit: 579 x 581 km, 97.9° (Epoch: 17 December)

Event Time Altitude Azimuth Distance (km) Brightness Sun altitude
Exits shadow 21:55:36 35° 33° (NNE) 954 3.2 -19.5°
Maximum altitude 21:57:12 64° 102° (ESE) 649 2.3 -19.8°
Drops below altitude 10° 22:01:16 10° 184° (S) 1,890 5.1 -20.4°
Sets 22:03:25 0° 187° (S) 2,784 6.1 -20.8°
